Clearwater PCEM FL US WEATHERSTEM current weather conditions

sailwx.info

Wind from 005 at 7 knots gusting 13

Air temperature 17.8° C
Dewpoint 11.1° C

Last reported at 2019-Nov-19 15:00 UTC.
Time now 2019-Nov-19 15:57 UTC

Location: N 27°58' W 082°48'.
View on Google Maps.

See reports from other nearby stations

  
Tides and Currents Weather Stations Pressure Air Temp Water Temp Dewpoint Dewpoint Depression Visibility Wind Speed Wind Dir Waves Ship Positions
date/time (UTC)wind fromknots sea level pressurealtimeterstation pressurevisibilityair tempwater tempwave heightnotes
2019-Nov-19 15:00 005 7 gusting 13 17.8
2019-Nov-19 14:50 053 3 gusting 13 17.7
2019-Nov-19 14:40 030 8 gusting 15 17.6
2019-Nov-19 14:30 344 4 gusting 13 17.6
2019-Nov-19 14:20 360 9 gusting 11 17.6
2019-Nov-19 14:10 325 4 gusting 11 17.4
2019-Nov-19 14:00 360 8 gusting 11 17.3
2019-Nov-19 13:50 355 8 gusting 8 17.1
2019-Nov-19 13:40 010 6 gusting 11 16.8
2019-Nov-19 13:30 340 8 gusting 11 16.9
2019-Nov-19 13:20 017 10 gusting 13 17.1
2019-Nov-19 13:10 092 5 gusting 13 17.9
2019-Nov-19 13:00 336 4 gusting 10 18.2
2019-Nov-19 12:50 360 3 gusting 8 17.8
2019-Nov-19 12:40 017 3 gusting 7 17.3
2019-Nov-19 12:30 172 6 gusting 10 16.8
2019-Nov-19 12:20 16.8
2019-Nov-19 12:10 16.8
2019-Nov-19 12:00 178 1 gusting 1 16.8
2019-Nov-19 11:50 16.8
2019-Nov-19 11:40 178 0 gusting 0 16.8
2019-Nov-19 11:30 16.7
2019-Nov-19 11:20 16.7
2019-Nov-19 11:10 16.6
2019-Nov-19 11:00 16.6
2019-Nov-19 10:40 16.3
2019-Nov-19 10:30 16.2
2019-Nov-19 10:20 178 0 gusting 1 16.1
2019-Nov-19 10:10 16.0
2019-Nov-19 10:00 16.1
2019-Nov-19 09:50 16.1
2019-Nov-19 09:40 16.1
2019-Nov-19 09:30 16.2
2019-Nov-19 09:20 16.3
2019-Nov-19 09:10 16.3
2019-Nov-19 09:00 16.4
2019-Nov-19 08:50 16.5
2019-Nov-19 08:40 16.6
2019-Nov-19 08:30 16.7
2019-Nov-19 08:20 16.7
2019-Nov-19 08:10 178 16.8
2019-Nov-19 08:00 178 1 gusting 1 16.8
2019-Nov-19 07:50 16.8
2019-Nov-19 07:40 16.8
2019-Nov-19 07:30 178 2 gusting 2 16.9
2019-Nov-19 07:20 16.9
2019-Nov-19 07:10 178 0 gusting 1 16.9
2019-Nov-19 07:00 16.9
2019-Nov-19 06:50 16.8
2019-Nov-19 06:40 16.9
2019-Nov-19 06:30 16.8
2019-Nov-19 06:20 178 2 gusting 3 16.7
2019-Nov-19 06:10 16.7
2019-Nov-19 06:00 178 2 gusting 3 16.8
2019-Nov-19 05:50 178 1 gusting 2 16.7
2019-Nov-19 05:40 178 1 gusting 2 16.7
2019-Nov-19 05:30 178 2 gusting 2 16.7
2019-Nov-19 05:20 178 2 gusting 2 16.6
2019-Nov-19 05:10 178 2 gusting 2 16.7
2019-Nov-19 05:00 178 1 gusting 3 16.7
2019-Nov-19 04:50 16.8
2019-Nov-19 04:40 178 2 gusting 2 16.9
2019-Nov-19 04:30 178 0 gusting 3 16.9
2019-Nov-19 04:20 17.0
2019-Nov-19 04:10 178 1 gusting 3 17.0
2019-Nov-19 04:00 178 1 gusting 3 17.1
2019-Nov-19 03:50 178 1 gusting 3 17.1
2019-Nov-19 03:40 178 1 gusting 2 17.1
2019-Nov-19 03:30 178 2 gusting 4 17.1
2019-Nov-19 03:20 178 3 gusting 4 17.1
2019-Nov-19 03:10 178 1 gusting 4 17.1
2019-Nov-19 03:00 178 3 gusting 4 17.2
2019-Nov-19 02:50 179 2 gusting 3 17.3
2019-Nov-19 02:40 17.4
2019-Nov-19 02:30 179 0 gusting 2 17.4
2019-Nov-19 02:20 17.4
2019-Nov-19 02:10 17.6
2019-Nov-19 02:00 17.7
2019-Nov-19 01:50 17.8
2019-Nov-19 01:40 18.0
2019-Nov-19 01:20 18.2
2019-Nov-19 01:10 18.3
2019-Nov-19 01:00 18.4
2019-Nov-19 00:50 18.6
2019-Nov-19 00:40 251 0 gusting 2 18.6
2019-Nov-19 00:30 051 3 gusting 4 18.7
2019-Nov-19 00:20 345 1 gusting 2 18.9
2019-Nov-19 00:10 271 1 gusting 2 19.1
2019-Nov-19 00:00 348 1 gusting 1 19.2
2019-Nov-18 23:50 19.2
2019-Nov-18 23:40 19.3
2019-Nov-18 23:30 19.3
2019-Nov-18 23:20 19.4
2019-Nov-18 23:10 19.4
2019-Nov-18 23:00 19.4
2019-Nov-18 22:50 19.4
2019-Nov-18 22:40 19.4
2019-Nov-18 22:30 19.5
2019-Nov-18 22:20 19.7
2019-Nov-18 22:10 240 1 gusting 3 19.8
2019-Nov-18 22:00 255 2 gusting 3 19.9
2019-Nov-18 21:50 244 0 gusting 3 20.2
2019-Nov-18 21:40 19.9
2019-Nov-18 21:30 257 1 gusting 3 20.2
2019-Nov-18 21:20 271 0 gusting 5 20.2
2019-Nov-18 21:10 257 1 gusting 7 20.2
2019-Nov-18 21:00 269 6 gusting 7 20.3
2019-Nov-18 20:50 261 2 gusting 6 20.3
2019-Nov-18 20:40 254 7 gusting 7 20.3
2019-Nov-18 20:30 259 5 gusting 6 20.2
2019-Nov-18 20:20 269 5 gusting 7 20.3
2019-Nov-18 20:10 273 2 gusting 6 20.2
2019-Nov-18 20:00 238 2 gusting 6 20.6
2019-Nov-18 19:50 250 2 gusting 8 20.2
2019-Nov-18 19:40 242 4 gusting 7 20.1
2019-Nov-18 19:30 243 2 gusting 6 19.9
2019-Nov-18 19:20 288 3 gusting 6 20.2
2019-Nov-18 19:10 277 5 gusting 6 20.8
2019-Nov-18 19:00 304 2 gusting 6 20.4
2019-Nov-18 18:50 309 1 gusting 6 20.5
2019-Nov-18 18:40 337 2 gusting 6 20.6
2019-Nov-18 18:30 290 3 gusting 6 20.5
2019-Nov-18 18:20 355 2 gusting 4 20.9
2019-Nov-18 18:10 252 3 gusting 4 20.3
2019-Nov-18 18:00 298 0 gusting 4 20.3
2019-Nov-18 17:50 305 4 gusting 6 20.0
2019-Nov-18 17:40 334 3 gusting 5 20.2
2019-Nov-18 17:30 324 0 gusting 7 19.9
2019-Nov-18 17:20 005 1 gusting 7 20.2
2019-Nov-18 17:10 013 2 gusting 6 20.2
2019-Nov-18 17:00 168 1 gusting 6 20.4
2019-Nov-18 16:50 168 0 gusting 5 19.8
2019-Nov-18 16:40 168 5 gusting 6 19.6
2019-Nov-18 16:30 247 3 gusting 6 19.1
2019-Nov-18 16:20 252 2 gusting 5 18.8
2019-Nov-18 16:10 258 1 gusting 3 18.9
2019-Nov-18 16:00 261 2 gusting 5 18.4
2019-Nov-18 15:50 259 5 gusting 5 18.3
2019-Nov-18 15:40 177 1 gusting 3 18.1
2019-Nov-18 15:30 177 1 gusting 3 18.0
2019-Nov-18 15:20 177 0 gusting 3 17.9
2019-Nov-18 15:10 17.7
2019-Nov-18 15:00 17.9
2019-Nov-18 14:50 17.5
2019-Nov-18 14:40 17.2
2019-Nov-18 14:30 17.1
2019-Nov-18 14:20 16.9
2019-Nov-18 14:10 16.6
2019-Nov-18 14:00 16.1
2019-Nov-18 13:50 15.4
2019-Nov-18 13:40 15.1
2019-Nov-18 13:30 14.7
2019-Nov-18 13:20 14.3
2019-Nov-18 13:10 13.9
2019-Nov-18 13:00 13.4
2019-Nov-18 12:50 13.2
2019-Nov-18 12:40 13.0
2019-Nov-18 12:30 12.8
2019-Nov-18 12:20 12.8
2019-Nov-18 12:10 12.8
2019-Nov-18 12:00 12.9
2019-Nov-18 11:50 12.9
2019-Nov-18 11:40 12.9
2019-Nov-18 11:30 12.9
2019-Nov-18 11:20 12.9
2019-Nov-18 11:10 13.1
2019-Nov-18 11:00 177 1 gusting 4 13.1
2019-Nov-18 10:50 13.1
2019-Nov-18 10:40 13.1
2019-Nov-18 10:30 13.2
2019-Nov-18 10:20 13.1
2019-Nov-18 10:10 13.1
2019-Nov-18 10:00 13.1
2019-Nov-18 09:50 13.1
2019-Nov-18 09:40 13.1
2019-Nov-18 09:30 13.0
2019-Nov-18 09:20 12.9
2019-Nov-18 09:10 12.9
2019-Nov-18 09:00 12.8
2019-Nov-18 08:50 045 1 gusting 4 12.8
2019-Nov-18 08:40 12.7
2019-Nov-18 08:30 076 1 gusting 4 12.7
2019-Nov-18 08:20 017 1 gusting 6 12.7
2019-Nov-18 08:10 163 1 gusting 6 12.7
2019-Nov-18 08:00 168 0 gusting 5 12.6
2019-Nov-18 07:50 168 0 gusting 4 12.4
2019-Nov-18 07:40 12.4
2019-Nov-18 07:30 169 1 gusting 5 12.3
2019-Nov-18 07:20 12.3
2019-Nov-18 07:10 163 0 gusting 3 12.3
2019-Nov-18 07:00 12.3
2019-Nov-18 06:50 12.2
2019-Nov-18 06:40 12.2
2019-Nov-18 06:30 12.2
2019-Nov-18 06:20 074 0 gusting 6 12.1
2019-Nov-18 06:10 106 2 gusting 6 12.0
2019-Nov-18 06:00 12.0
2019-Nov-18 05:50 036 1 gusting 6 11.9
2019-Nov-18 05:40 077 6 gusting 6 11.9
2019-Nov-18 05:30 087 1 gusting 5 11.9
2019-Nov-18 05:20 005 2 gusting 6 11.8
2019-Nov-18 05:10 173 0 gusting 6 11.7
2019-Nov-18 05:00 046 2 gusting 7 11.7
2019-Nov-18 04:50 165 1 gusting 8 11.7
2019-Nov-18 04:40 167 3 gusting 6 11.7
2019-Nov-18 04:30 161 3 gusting 4 11.7
2019-Nov-18 04:20 064 0 gusting 6 11.7
2019-Nov-18 04:10 117 2 gusting 6 11.8
2019-Nov-18 04:00 076 2 gusting 6 11.9
2019-Nov-18 03:50 115 5 gusting 6 12.0
2019-Nov-18 03:40 093 2 gusting 7 12.1
2019-Nov-18 03:30 081 6 gusting 8 12.1
2019-Nov-18 03:20 042 5 gusting 7 12.2
2019-Nov-18 03:10 071 6 gusting 7 12.2
2019-Nov-18 03:00 074 4 gusting 10 12.2
2019-Nov-18 02:50 066 7 gusting 9 12.3
2019-Nov-18 02:40 062 8 gusting 9 12.3
2019-Nov-18 02:30 069 3 gusting 8 12.4
2019-Nov-18 02:20 034 4 gusting 8 12.4
2019-Nov-18 02:10 034 3 gusting 6 12.4
2019-Nov-18 02:00 051 7 gusting 8 12.4
2019-Nov-18 01:50 030 4 gusting 5 12.4
2019-Nov-18 01:40 355 1 gusting 7 12.5
2019-Nov-18 01:30 093 2 gusting 8 12.6
2019-Nov-18 01:20 360 4 gusting 6 12.6
2019-Nov-18 01:10 023 5 gusting 9 12.6
2019-Nov-18 01:00 344 3 gusting 8 12.6
2019-Nov-18 00:50 005 6 gusting 10 12.7
2019-Nov-18 00:40 022 4 gusting 8 12.6
2019-Nov-18 00:30 061 6 gusting 10 12.7
2019-Nov-18 00:20 027 7 gusting 13 12.8
2019-Nov-18 00:10 350 6 gusting 13 12.8
2019-Nov-18 00:00 009 6 gusting 9 12.7
2019-Nov-17 23:50 009 2 gusting 13 12.8
2019-Nov-17 23:40 329 5 gusting 11 12.9
2019-Nov-17 23:30 058 7 gusting 13 12.8
2019-Nov-17 23:20 024 7 gusting 11 12.8
2019-Nov-17 23:10 355 8 gusting 11 12.9
2019-Nov-17 23:00 328 6 gusting 11 12.8
2019-Nov-17 22:50 328 1 gusting 15 12.9
2019-Nov-17 22:40 360 6 gusting 10 12.9
2019-Nov-17 22:30 326 3 gusting 10 13.0
2019-Nov-17 22:20 338 7 gusting 14 13.2
2019-Nov-17 22:10 011 4 gusting 13 13.3
2019-Nov-17 22:00 355 11 gusting 11 13.4
2019-Nov-17 21:50 005 5 gusting 10 13.4
2019-Nov-17 21:40 355 8 gusting 8 13.4
2019-Nov-17 21:30 355 7 gusting 14 13.4
2019-Nov-17 21:20 355 4 gusting 10 13.3
2019-Nov-17 21:10 347 8 gusting 11 13.3
2019-Nov-17 21:00 013 10 gusting 12 13.3
2019-Nov-17 20:50 011 7 gusting 11 13.4
2019-Nov-17 20:40 009 4 gusting 10 13.2
2019-Nov-17 20:30 328 1 gusting 11 13.3
2019-Nov-17 20:20 034 3 gusting 11 13.3
2019-Nov-17 20:10 360 7 gusting 9 13.2
2019-Nov-17 20:00 360 5 gusting 11 13.2
2019-Nov-17 19:50 346 5 gusting 13 13.1
2019-Nov-17 19:40 360 6 gusting 8 13.1
2019-Nov-17 19:30 340 8 gusting 11 13.1
2019-Nov-17 19:20 350 3 gusting 7 13.1
2019-Nov-17 19:10 013 3 gusting 7 13.1
2019-Nov-17 19:00 342 3 gusting 9 12.9
2019-Nov-17 18:50 022 7 gusting 10 12.9
2019-Nov-17 18:40 009 4 gusting 8 12.9
2019-Nov-17 18:30 017 6 gusting 10 12.9
2019-Nov-17 18:20 010 6 gusting 9 12.9
2019-Nov-17 18:10 018 7 gusting 13 12.9
2019-Nov-17 17:50 019 2 gusting 10 13.1
2019-Nov-17 17:40 038 8 gusting 9 13.0
2019-Nov-17 17:30 342 5 gusting 11 12.9
2019-Nov-17 17:20 344 0 gusting 10 12.8
2019-Nov-17 17:10 348 5 gusting 9 12.8
2019-Nov-17 17:00 333 3 gusting 8 12.8
2019-Nov-17 16:50 074 1 gusting 8 12.7
2019-Nov-17 16:40 339 5 gusting 8 12.7
2019-Nov-17 16:30 325 0 gusting 5 12.6
2019-Nov-17 16:20 348 3 gusting 7 12.5
2019-Nov-17 16:10 285 1 gusting 9 12.5
2019-Nov-17 16:00 016 7 gusting 8 12.4
2019-Nov-17 15:50 019 0 gusting 9 12.4
2019-Nov-17 15:40 055 3 gusting 6 12.4
2019-Nov-17 15:30 333 2 gusting 6 12.3
2019-Nov-17 15:20 350 4 gusting 8 12.2
2019-Nov-17 15:10 330 3 gusting 7 12.1
2019-Nov-17 15:00 009 6 gusting 7 11.9